Regional Weather Roundup
Issued by NWS State College, PA

Home | Current Version | Previous Version | Text Only | Print | Product List | Glossary On
Versions: 1 2 3 4 5 6 7 8 9 10 11 12 13 14 15 16 17 18 19 20 21 22 23 24 25 26 27 28 29 30 31 32 33 34 35 36 37 38 39 40 41 42 43 44 45 46 47 48 49 50
000
ASUS41 KCTP 221110
RWRCTP

REGIONAL WEATHER ROUNDUP
NATIONAL WEATHER SERVICE STATE COLLEGE PA
700 AM EDT WED MAR 22 2017

Note: "fair" indicates few or no clouds below 12,000 feet with no
significant weather and/or obstructions to visibility.

* = STATION THAT DOES NOT REPORT PRECIPITATION /E.G. RAIN...SNOW...ETC/
    THUNDER OR FOG.

PAZ002>004-007>009-013>016-020>023-029>032-221200-
WESTERN PENNSYLVANIA

CITY           SKY/WX    TMP DP  RH WIND       PRES   REMARKS
ERIE           CLEAR     24   7  48 N17G29    30.36R WCI  11
MEADVILLE      CLOUDY    23  14  68 N15G25    30.28R WCI  10
FRANKLIN*      CLOUDY    21  16  79 N7        30.26R VSB 1/2 WCI  13
NEW CASTLE     FLURRIES  26  18  71 N10G18    30.31R
BEAVER COUNTY  MOCLDY    25  16  68 NW10G16   30.28  WCI  15
BUTLER*        MOCLDY    27  12  54 NW7G17    30.27R
PITTSBURGH INT MOCLDY    27  13  55 N10       30.28R
PITTSBURGH     CLOUDY    27  11  51 NW13G30   30.26R
INDIANA*       MOCLDY    27  16  63 NW8G15    30.24R
LATROBE        MOCLDY    27  10  50 N12       30.27R
WASHINGTON CO* CLOUDY    27  10  50 N9G16     30.30R
$$

PAZ004>006-010>012-017>019-024>028-033>037-041-042-045-046-049>053-221200-
CENTRAL PENNSYLVANIA

CITY           SKY/WX    TMP DP  RH WIND       PRES   REMARKS
BRADFORD       MOCLDY    18   5  57 NW20G29   30.16R WCI   2
DUBOIS         PTCLDY    23  16  74 NW13G18   30.16R WCI  11
CLEARFIELD       N/A    N/A N/A N/A MISG      30.17R
JOHNSTOWN      CLOUDY    24  13  62 NW17      30.13R WCI  11
ALTOONA        PTCLDY    29  13  51 N17G30    30.15R
STATE COLLEGE  LGT SNOW  28  19  69 NW16G26   30.15R
WILLIAMSPORT   MOCLDY    31  16  54 NW17G26   30.14R
SELINSGROVE    CLOUDY    34  22  61 NW18G28   30.13R
FT INDIANTOWN  PTCLDY    37  16  42 NW9G17    30.07R
CAPITAL CITY   CLEAR     38  14  37 NW15G26   30.10R
HARRISBURG     PTCLDY    37  18  46 NW20G26   30.09R
YORK           PTCLDY    36  21  54 NW13G25   30.08R
$$

PAZ038>040-043-044-047-048-054-055-060>062-067>071-221200-
EASTERN PENNSYLVANIA

CITY           SKY/WX    TMP DP  RH WIND       PRES   REMARKS
SCRANTON       MOCLDY    28  13  53 N26G36    30.07R WCI  13
MOUNT POCONO   CLOUDY    24  12  60 NW22G38   29.96R WCI   9
ALLENTOWN      CLEAR     37  18  46 NW14G22   30.03R
QUAKERTOWN*    SUNNY     36  16  44 NW16G24   30.02R
READING        CLEAR     36  21  54 NW13G20   30.05R
LANCASTER      MOCLDY    38  21  50 NW14G33   30.06R
COATESVILLE    PTSUNNY   37  21  52 N16G24    30.04R
POTTSTOWN      CLEAR     37  18  46 NW13G22   30.04R
BLUE BELL      PTCLDY    37  23  56 NW5       30.02R
DOYLESTOWN     CLEAR     31  32 100 NW10      30.00R
WILLOW GROVE   NOT AVBL
NORTH PHILA    CLEAR     40  23  50 N20G30    30.03R
PHILADELPHIA   PTCLDY    43  23  45 N18G30    30.02R
$$




USA.gov is the U.S. government's official web portal to all federal, state and local government web resources and services.